FW5426 Weather Reports


Display with metric or nautical units.
time (UTC)temp
F
wind
direction
speed
MPH
gust
MPH
rain 1hr
in
rain 24hr
in
rain mn
in
humidity
%
barometer
mb
20260505050603 74 320 14.0 25.0 0.00 0.00 0.00 20 1013.8
20260505041601 76 254 12.0 27.0 0.00 0.00 0.00 16 1013.5
20260505041101 76 324 12.0 27.0 0.00 0.00 0.00 17 1013.3
20260505040601 76 284 10.0 27.0 0.00 0.00 0.00 17 1013.4
20260505035600 77 310 10.0 17.0 0.00 0.00 0.00 20 1013.4
20260505035102 77 297 13.0 20.0 0.00 0.00 0.00 21 1013.3
20260505034601 77 239 14.0 23.0 0.00 0.00 0.00 21 1013.2
20260505034101 77 274 12.0 23.0 0.00 0.00 0.00 21 1013.1
20260505033601 78 284 13.0 24.0 0.00 0.00 0.00 21 1013.1
20260505033328 78 302 13.0 24.0 0.00 0.00 0.00 21 1013.1
20260505032900 78 273 12.0 24.0 0.00 0.00 0.00 21 1012.8
20260505032850 78 241 12.0 22.0 0.00 0.00 0.00 20 1013.1
20260505032838 78 253 11.0 23.0 0.00 0.00 0.00 21 1012.9
20260505032828 78 263 11.0 23.0 0.00 0.00 0.00 21 1012.9
20260505031101 78 273 12.0 24.0 0.00 0.00 0.00 21 1012.8
20260505030601 78 260 13.0 24.0 0.00 0.00 0.00 21 1013.1
20260505030325 78 242 14.0 23.0 0.00 0.00 0.00 21 1012.8
20260505025601 78 279 12.0 21.0 0.00 0.00 0.00 21 1012.9
20260505025323 78 257 11.0 19.0 0.00 0.00 0.00 20 1012.8
20260505024824 78 271 11.0 19.0 0.00 0.00 0.00 20 1012.8
20260505024328 78 263 12.0 21.0 0.00 0.00 0.00 20 1012.6
20260505023601 78 266 11.0 21.0 0.00 0.00 0.00 20 1012.6
20260505023100 78 254 11.0 21.0 0.00 0.00 0.00 20 1012.6
20260505022602 78 267 11.0 21.0 0.00 0.00 0.00 20 1012.5
20260505022101 79 257 11.0 20.0 0.00 0.00 0.00 19 1012.5
20260505021558 79 261 12.0 25.0 0.00 0.00 0.00 19 1012.5
20260505021547 79 257 12.0 25.0 0.00 0.00 0.00 19 1012.4
20260505020557 79 327 9.0 21.0 0.00 0.00 0.00 19 1012.5
20260505020055 79 267 8.0 18.0 0.00 0.00 0.00 19 1012.5
20260505015555 79 271 11.0 18.0 0.00 0.00 0.00 19 1012.2
20260505015056 79 258 11.0 19.0 0.00 0.00 0.00 19 1012.2
20260505014553 79 263 11.0 19.0 0.00 0.00 0.00 19 1012.0
20260505014052 80 281 10.0 23.0 0.00 0.00 0.00 19 1011.9
20260505013552 80 240 11.0 23.0 0.00 0.00 0.00 19 1012.2
20260505013314 80 278 12.0 25.0 0.00 0.00 0.00 18 1012.0
20260505012548 80 258 12.0 25.0 0.00 0.00 0.00 18 1012.0
20260505012049 80 257 13.0 24.0 0.00 0.00 0.00 18 1012.0
20260505011549 80 226 12.0 24.0 0.00 0.00 0.00 18 1011.8
20260505011047 80 229 10.0 23.0 0.00 0.00 0.00 18 1011.9
20260505010547 80 295 9.0 18.0 0.00 0.00 0.00 18 1011.9
20260505010046 80 264 10.0 20.0 0.00 0.00 0.00 18 1011.8
20260505005546 80 278 10.0 24.0 0.00 0.00 0.00 18 1011.7
20260505005041 81 261 10.0 24.0 0.00 0.00 0.00 17 1011.9
20260505004535 81 275 11.0 18.0 0.00 0.00 0.00 17 1012.0
20260505004035 81 221 11.0 24.0 0.00 0.00 0.00 17 1012.0
20260505003535 81 258 11.0 24.0 0.00 0.00 0.00 16 1012.2
20260505003252 81 246 11.0 20.0 0.00 0.00 0.00 16 1012.4
20260505002534 81 249 10.0 20.0 0.00 0.00 0.00 16 1012.4
20260505002035 81 244 9.0 16.0 0.00 0.00 0.00 16 1012.4
20260505001759 81 242 11.0 21.0 0.00 0.00 0.00 16 1012.5
20260505001035 82 277 11.0 21.0 0.00 0.00 0.00 15 1012.5
20260505001014 82 269 9.0 19.0 0.00 0.00 0.00 15 1012.5
20260505000034 82 272 10.0 21.0 0.00 0.00 0.00 15 1012.5
20260504235536 82 288 12.0 21.0 0.00 0.00 0.00 15 1012.4
20260504235035 82 217 12.0 21.0 0.00 0.00 0.00 15 1012.6
20260504234531 82 270 11.0 21.0 0.00 0.00 0.00 15 1012.6
20260504234030 82 259 11.0 20.0 0.00 0.00 0.00 15 1012.6
20260504233532 82 263 12.0 22.0 0.00 0.00 0.00 14 1012.7
20260504233031 82 262 11.0 22.0 0.00 0.00 0.00 14 1012.6
20260504232531 82 253 8.0 22.0 0.00 0.00 0.00 14 1012.6
20260504232031 83 267 8.0 17.0 0.00 0.00 0.00 14 1012.6
20260504231530 83 235 11.0 22.0 0.00 0.00 0.00 14 1012.6
20260504231031 83 279 12.0 22.0 0.00 0.00 0.00 14 1012.6
20260504230530 83 233 11.0 20.0 0.00 0.00 0.00 14 1012.6
20260504230027 83 261 10.0 25.0 0.00 0.00 0.00 13 1012.6
20260504225527 84 252 10.0 25.0 0.00 0.00 0.00 13 1012.8
20260504225028 84 285 9.0 17.0 0.00 0.00 0.00 13 1012.7
20260504224528 84 257 8.0 16.0 0.00 0.00 0.00 13 1012.8
20260504224026 83 274 10.0 27.0 0.00 0.00 0.00 13 1012.8
20260504223527 83 257 11.0 27.0 0.00 0.00 0.00 13 1012.8
20260504223026 83 234 12.0 27.0 0.00 0.00 0.00 13 1012.7
20260504222527 83 226 13.0 27.0 0.00 0.00 0.00 13 1013.2
20260504222027 84 250 12.0 22.0 0.00 0.00 0.00 13 1013.1
20260504221526 84 237 11.0 23.0 0.00 0.00 0.00 13 1013.2
20260504221245 83 261 12.0 25.0 0.00 0.00 0.00 13 1013.1
20260504220521 83 302 15.0 33.0 0.00 0.00 0.00 13 1013.2
20260504220241 84 242 13.0 33.0 0.00 0.00 0.00 13 1013.3
20260504215519 84 225 13.0 33.0 0.00 0.00 0.00 13 1013.2
20260504215019 83 262 14.0 33.0 0.00 0.00 0.00 13 1013.2
20260504214518 83 293 11.0 21.0 0.00 0.00 0.00 13 1013.4
20260504214241 82 219 12.0 29.0 0.00 0.00 0.00 14 1013.4
20260504213516 82 296 13.0 29.0 0.00 0.00 0.00 14 1013.4
20260504213016 83 225 12.0 24.0 0.00 0.00 0.00 13 1013.3
20260504212739 83 279 14.0 26.0 0.00 0.00 0.00 14 1013.6
20260504212015 83 264 16.0 26.0 0.00 0.00 0.00 13 1013.7
20260504211514 84 246 14.0 26.0 0.00 0.00 0.00 13 1013.5
20260504211014 84 278 12.0 24.0 0.00 0.00 0.00 13 1013.7
20260504210515 84 251 13.0 24.0 0.00 0.00 0.00 13 1013.6
20260504210015 83 298 14.0 24.0 0.00 0.00 0.00 13 1014.0
20260504205515 84 290 14.0 24.0 0.00 0.00 0.00 13 1014.1
20260504205014 83 269 15.0 27.0 0.00 0.00 0.00 13 1014.1
20260504204506 83 260 15.0 27.0 0.00 0.00 0.00 13 1014.2
20260504204002 84 236 11.0 25.0 0.00 0.00 0.00 12 1014.3
20260504203501 84 234 9.0 20.0 0.00 0.00 0.00 13 1014.3
20260504203002 83 221 8.0 19.0 0.00 0.00 0.00 13 1014.3
20260504202502 84 233 8.0 19.0 0.00 0.00 0.00 12 1014.6
20260504202001 84 294 9.0 19.0 0.00 0.00 0.00 13 1014.5
20260504201501 83 250 11.0 21.0 0.00 0.00 0.00 13 1014.5
20260504201226 82 234 11.0 21.0 0.00 0.00 0.00 13 1014.7
20260504200501 82 211 12.0 26.0 0.00 0.00 0.00 16 1015.0
20260504200226 82 257 12.0 26.0 0.00 0.00 0.00 17 1015.1
20260504195500 82 246 11.0 20.0 0.00 0.00 0.00 17 1015.1
20260504195001 81 227 10.0 17.0 0.00 0.00 0.00 17 1015.2
20260504194501 81 285 8.0 17.0 0.00 0.00 0.00 17 1015.6
20260504194001 80 343 8.0 18.0 0.00 0.00 0.00 18 1015.3
20260504193726 80 278 9.0 19.0 0.00 0.00 0.00 18 1015.3
20260504193002 81 302 10.0 19.0 0.00 0.00 0.00 17 1015.3
20260504192725 81 215 9.0 19.0 0.00 0.00 0.00 18 1015.3
20260504192001 80 285 8.0 19.0 0.00 0.00 0.00 19 1015.3
20260504191456 80 285 9.0 18.0 0.00 0.00 0.00 19 1015.3
20260504190950 79 271 9.0 18.0 0.00 0.00 0.00 19 1015.5
20260504190444 78 242 6.0 15.0 0.00 0.00 0.00 20 1015.5
20260504185938 78 284 4.0 15.0 0.00 0.00 0.00 19 1015.6
20260504185915 78 202 5.0 12.0 0.00 0.00 0.00 20 1015.8
20260504184933 78 315 7.0 14.0 0.00 0.00 0.00 18 1015.6
20260504184430 79 272 7.0 15.0 0.00 0.00 0.00 18 1015.9
20260504183931 78 227 8.0 15.0 0.00 0.00 0.00 19 1015.9
20260504183431 78 299 8.0 15.0 0.00 0.00 0.00 19 1016.0
20260504183420 78 252 7.0 14.0 0.00 0.00 0.00 22 1016.1
20260504182702 78 268 7.0 17.0 0.00 0.00 0.00 22 1015.9
20260504181930 77 321 7.0 17.0 0.00 0.00 0.00 21 1016.0
20260504181430 77 309 8.0 17.0 0.00 0.00 0.00 21 1016.2
20260504180929 76 276 7.0 17.0 0.00 0.00 0.00 23 1016.2
20260504180657 76 289 7.0 19.0 0.00 0.00 0.00 24 1016.4
20260504175930 76 263 9.0 19.0 0.00 0.00 0.00 25 1016.5
20260504175430 75 294 7.0 19.0 0.00 0.00 0.00 24 1016.7
20260504174930 76 301 7.0 15.0 0.00 0.00 0.00 24 1016.7
20260504174430 76 309 7.0 15.0 0.00 0.00 0.00 24 1016.4
20260504174410 76 234 6.0 13.0 0.00 0.00 0.00 24 1016.3
20260504173430 76 250 6.0 13.0 0.00 0.00 0.00 24 1016.3
20260504172930 76 5 6.0 16.0 0.00 0.00 0.00 24 1016.4
20260504172649 76 259 5.0 16.0 0.00 0.00 0.00 26 1016.7
20260504171920 76 322 5.0 14.0 0.00 0.00 0.00 26 1016.8
20260504171414 75 270 6.0 14.0 0.00 0.00 0.00 26 1016.8
20260504171128 75 221 8.0 17.0 0.00 0.00 0.00 26 1016.8
20260504170401 75 305 5.0 17.0 0.00 0.00 0.00 26 1016.8
20260504170123 74 250 5.0 12.0 0.00 0.00 0.00 25 1016.7
20260504160402 72 22 4.0 9.0 0.00 0.00 0.00 29 1017.0
20260504160129 72 327 4.0 9.0 0.00 0.00 0.00 29 1017.1
20260504150902 70 5 3.0 5.0 0.00 0.00 0.00 30 1016.9
20260504150401 70 63 3.0 8.0 0.00 0.00 0.00 30 1016.8
20260504141124 69 15 2.0 9.0 0.00 0.00 0.00 32 1016.9
20260504140401 68 24 3.0 7.0 0.00 0.00 0.00 32 1016.9
20260504140127 68 22 3.0 12.0 0.00 0.00 0.00 32 1016.9
20260504130401 67 44 2.0 5.0 0.00 0.00 0.00 35 1015.9
20260504110555 69 323 1.0 4.0 0.00 0.00 0.00 31 1014.9
20260504100321 71 225 5.0 12.0 0.00 0.00 0.00 29 1014.7
20260504081304 64 104 0.0 4.0 0.00 0.00 0.00 51 1015.1
20260504080804 64 244 0.0 3.0 0.00 0.00 0.00 51 1015.1
20260504080521 64 244 0.0 3.0 0.00 0.00 0.00 51 1015.1
20260504070301 65 101 1.0 4.0 0.00 0.00 0.00 50 1015.6